FW4092 Weather Reports


time (UTC)temp
F
wind
direction
speed
knots
gust
knots
rain 1hr
in
rain 24hr
in
rain mn
in
humidity
%
barometer
mb
20260509061243 55 355 0.0 4.3 0.00 0.00 0.00 60 1018.4
20260509060740 55 355 0.0 3.5 0.00 0.00 0.00 61 1018.4
20260509060535 56 355 0.9 3.5 0.00 0.00 0.00 59 1018.3
20260509055740 56 350 0.9 4.3 0.00 0.00 0.00 58 1018.1
20260509055235 56 351 1.7 4.3 0.00 0.00 0.00 58 1018.2
20260509054734 57 333 2.6 7.0 0.00 0.00 0.00 57 1018.3
20260509054235 57 327 3.5 9.6 0.00 0.00 0.00 57 1018.2
20260509053733 57 340 4.3 9.6 0.00 0.00 0.00 57 1018.1
20260509053234 57 296 4.3 8.7 0.00 0.00 0.00 57 1017.9
20260509052734 56 298 4.3 9.6 0.00 0.00 0.00 57 1017.9
20260509052243 56 313 2.6 9.6 0.00 0.00 0.00 57 1018.0
20260509051733 57 319 2.6 7.8 0.00 0.00 0.00 57 1018.0
20260509051233 57 290 2.6 7.8 0.00 0.00 0.00 57 1017.9
20260509050734 57 295 1.7 7.0 0.00 0.00 0.00 56 1018.0
20260509050233 57 318 0.9 7.0 0.00 0.00 0.00 56 1018.0
20260509045735 57 309 0.9 4.3 0.00 0.00 0.00 55 1018.0
20260509045232 58 343 0.9 5.2 0.00 0.00 0.00 55 1017.9
20260509044734 58 350 0.9 5.2 0.00 0.00 0.00 55 1018.0
20260509044224 58 355 1.7 6.1 0.00 0.00 0.00 54 1018.0
20260509043717 58 315 1.7 6.1 0.00 0.00 0.00 55 1018.0
20260509043211 57 325 2.6 4.3 0.00 0.00 0.00 54 1017.9
20260509042932 57 335 1.7 4.3 0.00 0.00 0.00 54 1017.8
20260509042202 58 334 1.7 5.2 0.00 0.00 0.00 53 1017.8
20260509041653 58 300 1.7 5.2 0.00 0.00 0.00 52 1017.6
20260509041147 58 319 1.7 5.2 0.00 0.00 0.00 52 1017.6
20260509040642 59 332 1.7 5.2 0.00 0.00 0.00 51 1017.6
20260509040137 59 333 2.6 6.1 0.00 0.00 0.00 51 1017.6
20260509035919 60 331 3.5 7.8 0.00 0.00 0.00 50 1017.5
20260509035914 59 332 2.6 7.0 0.00 0.00 0.00 50 1017.5
20260509034620 60 305 3.5 7.8 0.00 0.00 0.00 50 1017.3
20260509034111 60 338 3.5 7.8 0.00 0.00 0.00 49 1017.2
20260509033833 60 300 3.5 8.7 0.00 0.00 0.00 49 1017.1
20260509033131 60 327 4.3 10.4 0.00 0.00 0.00 49 1017.1
20260509032853 61 294 5.2 11.3 0.00 0.00 0.00 48 1017.1
20260509031546 62 308 5.2 13.9 0.00 0.00 0.00 47 1017.1
20260509031046 62 263 6.1 13.9 0.00 0.00 0.00 47 1017.1
20260509030834 62 300 7.0 15.6 0.00 0.00 0.00 46 1017.0
20260509030050 63 273 5.2 15.6 0.00 0.00 0.00 46 1016.9
20260509025546 63 302 5.2 11.3 0.00 0.00 0.00 45 1016.9
20260509025324 63 345 6.1 13.0 0.00 0.00 0.00 44 1016.8
20260509024545 64 331 6.1 13.0 0.00 0.00 0.00 44 1016.7
20260509024045 64 315 7.0 13.0 0.00 0.00 0.00 43 1016.8
20260509023838 65 304 7.0 13.0 0.00 0.00 0.00 42 1016.7
20260509023330 65 290 6.1 12.2 0.00 0.00 0.00 41 1016.7
20260509022545 66 275 6.1 12.2 0.00 0.00 0.00 40 1016.7
20260509022045 66 288 6.1 13.9 0.00 0.00 0.00 38 1016.7
20260509021545 67 333 6.1 13.9 0.00 0.00 0.00 38 1016.6
20260509021058 67 284 6.1 13.0 0.00 0.00 0.00 37 1016.6
20260509020552 67 317 6.1 15.6 0.00 0.00 0.00 37 1016.5
20260509020329 67 324 7.8 15.6 0.00 0.00 0.00 36 1016.1
20260509015600 68 302 7.0 13.9 0.00 0.00 0.00 36 1016.0
20260509015049 68 313 7.0 15.6 0.00 0.00 0.00 36 1016.0
20260509014544 68 5 7.8 15.6 0.00 0.00 0.00 35 1016.0
20260509014039 69 329 7.8 14.8 0.00 0.00 0.00 35 1015.8
20260509013539 69 329 7.8 19.1 0.00 0.00 0.00 34 1015.7
20260509013038 69 327 8.7 19.1 0.00 0.00 0.00 35 1015.6
20260509012538 70 330 8.7 14.8 0.00 0.00 0.00 34 1015.6
20260509012039 70 295 7.8 14.8 0.00 0.00 0.00 33 1015.8
20260509011536 71 271 5.2 14.8 0.00 0.00 0.00 31 1015.8
20260509011033 71 285 4.3 10.4 0.00 0.00 0.00 31 1015.9
20260509010555 71 348 4.3 9.6 0.00 0.00 0.00 31 1016.1
20260509010550 71 295 4.3 9.6 0.00 0.00 0.00 31 1016.0
20260509005533 71 232 5.2 11.3 0.00 0.00 0.00 30 1016.0
20260509005035 71 265 5.2 11.3 0.00 0.00 0.00 30 1015.9
20260509004533 72 28 4.3 10.4 0.00 0.00 0.00 29 1016.0
20260509004029 72 319 5.2 11.3 0.00 0.00 0.00 29 1015.7
20260509003530 71 235 7.0 13.9 0.00 0.00 0.00 29 1015.6
20260509003029 71 271 8.7 15.6 0.00 0.00 0.00 29 1015.5
20260509002529 71 283 9.6 15.6 0.00 0.00 0.00 28 1015.4
20260509002033 72 265 9.6 17.4 0.00 0.00 0.00 28 1015.4
20260509001529 72 269 9.6 17.4 0.00 0.00 0.00 27 1015.3
20260509001029 73 252 8.7 16.5 0.00 0.00 0.00 27 1015.2
20260509000529 73 288 9.6 17.4 0.00 0.00 0.00 27 1015.2
20260509000029 72 293 8.7 17.4 0.00 0.00 0.00 27 1015.3
20260508235530 73 268 7.8 15.6 0.00 0.00 0.00 27 1015.3
20260508235030 72 265 7.8 15.6 0.00 0.00 0.00 28 1015.4
20260508234823 72 315 7.8 15.6 0.00 0.00 0.00 28 1015.6
20260508234320 73 290 7.0 14.8 0.00 0.00 0.00 27 1015.8
20260508233528 73 313 5.2 12.2 0.00 0.00 0.00 27 1015.9
20260508233314 73 280 5.2 12.2 0.00 0.00 0.00 26 1015.9
20260508232538 73 291 6.1 13.9 0.00 0.00 0.00 27 1016.0
20260508232032 73 326 6.1 13.9 0.00 0.00 0.00 27 1016.0
20260508231528 73 331 7.0 13.9 0.00 0.00 0.00 27 1016.0
20260508231255 73 267 7.8 13.9 0.00 0.00 0.00 27 1015.8
20260508230526 73 338 7.0 13.0 0.00 0.00 0.00 26 1015.9
20260508230028 73 281 7.8 15.6 0.00 0.00 0.00 27 1015.7
20260508225525 73 298 8.7 15.6 0.00 0.00 0.00 27 1015.6
20260508225025 73 305 8.7 14.8 0.00 0.00 0.00 27 1015.7
20260508224532 72 302 8.7 19.1 0.00 0.00 0.00 27 1015.6
20260508223510 72 300 8.7 17.4 0.00 0.00 0.00 27 1015.9
20260508223001 72 233 8.7 15.6 0.00 0.00 0.00 28 1015.8
20260508222454 72 205 8.7 15.6 0.00 0.00 0.00 27 1015.9
20260508221948 73 322 7.8 15.6 0.00 0.00 0.00 27 1015.8
20260508221442 73 304 7.8 15.6 0.00 0.00 0.00 28 1015.8
20260508220936 73 331 7.8 13.9 0.00 0.00 0.00 27 1015.9
20260508220429 73 292 7.0 15.6 0.00 0.00 0.00 27 1015.8
20260508215931 73 338 7.8 15.6 0.00 0.00 0.00 28 1015.8
20260508215925 74 323 7.0 15.6 0.00 0.00 0.00 27 1015.8
20260508214916 73 292 7.8 15.6 0.00 0.00 0.00 27 1015.6
20260508214912 73 274 8.7 15.6 0.00 0.00 0.00 27 1015.8
20260508213929 73 298 7.8 15.6 0.00 0.00 0.00 28 1015.7
20260508213914 73 292 7.8 15.6 0.00 0.00 0.00 28 1015.6
20260508212848 72 312 9.6 16.5 0.00 0.00 0.00 27 1015.6
20260508212343 72 351 9.6 19.1 0.00 0.00 0.00 26 1015.7
20260508211836 72 327 7.8 19.1 0.00 0.00 0.00 26 1015.7
20260508211332 73 290 7.0 16.5 0.00 0.00 0.00 25 1015.7
20260508210825 73 295 7.8 15.6 0.00 0.00 0.00 26 1015.6
20260508210321 72 254 7.8 16.5 0.00 0.00 0.00 26 1015.6
20260508205813 72 333 7.8 16.5 0.00 0.00 0.00 26 1015.6
20260508205309 72 300 7.8 19.1 0.00 0.00 0.00 26 1015.5
20260508204800 72 301 7.0 19.1 0.00 0.00 0.00 24 1015.7
20260508204257 72 323 7.0 15.6 0.00 0.00 0.00 24 1015.5
20260508204036 72 269 7.0 15.6 0.00 0.00 0.00 23 1015.6
20260508203242 72 299 6.1 13.0 0.00 0.00 0.00 24 1015.5
20260508202739 71 302 5.2 12.2 0.00 0.00 0.00 24 1015.6
20260508202258 72 331 6.1 13.9 0.00 0.00 0.00 24 1015.7
20260508202244 72 286 6.1 12.2 0.00 0.00 0.00 24 1015.6
20260508201218 71 0 7.0 13.9 0.00 0.00 0.00 24 1015.6
20260508200951 71 279 7.0 13.9 0.00 0.00 0.00 22 1015.7
20260508200451 72 281 6.1 13.0 0.00 0.00 0.00 22 1015.7
20260508195701 72 258 7.0 13.0 0.00 0.00 0.00 21 1015.8
20260508195154 72 267 5.2 15.6 0.00 0.00 0.00 22 1015.7
20260508194648 72 292 5.2 13.9 0.00 0.00 0.00 22 1015.6
20260508194142 71 261 5.2 11.3 0.00 0.00 0.00 20 1015.7
20260508193637 71 254 5.2 11.3 0.00 0.00 0.00 21 1015.6
20260508193129 70 298 7.0 15.6 0.00 0.00 0.00 22 1015.6
20260508192632 70 262 7.0 15.6 0.00 0.00 0.00 21 1015.5
20260508192130 70 256 5.2 13.0 0.00 0.00 0.00 23 1015.6
20260508191630 70 296 4.3 12.2 0.00 0.00 0.00 21 1015.7
20260508191131 69 255 4.3 10.4 0.00 0.00 0.00 22 1015.6
20260508190630 69 205 6.1 11.3 0.00 0.00 0.00 21 1015.6
20260508190424 69 255 5.2 11.3 0.00 0.00 0.00 21 1015.6
20260508185630 69 265 4.3 12.2 0.00 0.00 0.00 21 1015.7
20260508185133 69 259 5.2 12.2 0.00 0.00 0.00 23 1015.7
20260508184630 69 303 4.3 9.6 0.00 0.00 0.00 22 1015.6
20260508184130 68 308 4.3 8.7 0.00 0.00 0.00 24 1015.6
20260508183628 67 323 5.2 10.4 0.00 0.00 0.00 26 1015.8
20260508183415 66 295 5.2 11.3 0.00 0.00 0.00 26 1015.8
20260508182919 65 319 5.2 11.3 0.00 0.00 0.00 28 1015.8
20260508182351 64 298 4.3 10.4 0.00 0.00 0.00 29 1015.8
20260508181852 64 252 3.5 9.6 0.00 0.00 0.00 30 1015.9
20260508181128 64 294 3.5 9.6 0.00 0.00 0.00 31 1015.9
20260508180912 64 267 4.3 9.6 0.00 0.00 0.00 31 1015.8
20260508180356 64 324 4.3 8.7 0.00 0.00 0.00 31 1015.6
20260508175635 64 254 3.5 7.8 0.00 0.00 0.00 32 1015.6
20260508175411 64 283 4.3 7.8 0.00 0.00 0.00 32 1015.4
20260508174901 64 261 5.2 8.7 0.00 0.00 0.00 31 1015.4
20260508174127 64 304 4.3 10.4 0.00 0.00 0.00 31 1015.3
20260508173626 64 229 4.3 10.4 0.00 0.00 0.00 31 1015.4
20260508173412 65 285 3.5 7.0 0.00 0.00 0.00 31 1015.4
20260508172626 65 215 3.5 9.6 0.00 0.00 0.00 31 1015.5
20260508172124 65 255 3.5 9.6 0.00 0.00 0.00 33 1015.6
20260508171623 65 289 2.6 7.8 0.00 0.00 0.00 34 1015.6
20260508171122 65 32 1.7 7.0 0.00 0.00 0.00 33 1015.6
20260508170632 64 219 2.6 8.7 0.00 0.00 0.00 35 1015.5
20260508170127 64 325 1.7 8.7 0.00 0.00 0.00 36 1015.5
20260508165621 64 294 0.9 3.5 0.00 0.00 0.00 38 1015.5
20260508165419 64 327 1.7 5.2 0.00 0.00 0.00 36 1015.5
20260508164621 63 300 2.6 7.8 0.00 0.00 0.00 37 1015.5
20260508164120 63 333 1.7 7.8 0.00 0.00 0.00 39 1015.6
20260508163620 62 334 1.7 6.1 0.00 0.00 0.00 41 1015.6
20260508163120 62 302 1.7 6.1 0.00 0.00 0.00 41 1015.6
20260508162611 62 313 0.9 3.5 0.00 0.00 0.00 42 1015.7
20260508162356 62 220 0.9 3.5 0.00 0.00 0.00 42 1015.8
20260508161844 62 281 0.9 3.5 0.00 0.00 0.00 42 1015.8
20260508161054 62 350 0.9 3.5 0.00 0.00 0.00 42 1015.7
20260508160547 62 176 0.0 2.6 0.00 0.00 0.00 41 1015.6
20260508160328 61 105 0.9 2.6 0.00 0.00 0.00 42 1015.6
20260508155535 61 118 0.9 2.6 0.00 0.00 0.00 42 1015.6
20260508155030 60 108 0.9 3.5 0.00 0.00 0.00 43 1015.5
20260508154525 59 113 1.7 3.5 0.00 0.00 0.00 44 1015.5
20260508154021 58 139 0.9 3.5 0.00 0.00 0.00 44 1015.5
20260508153752 57 155 1.7 4.3 0.00 0.00 0.00 46 1015.5
20260508153037 55 150 1.7 4.3 0.00 0.00 0.00 47 1015.4
20260508153020 56 150 1.7 4.3 0.00 0.00 0.00 47 1015.5
20260508151952 54 158 1.7 4.3 0.00 0.00 0.00 48 1015.3
20260508151447 53 135 1.7 4.3 0.00 0.00 0.00 49 1015.3
20260508151232 52 180 1.7 4.3 0.00 0.00 0.00 49 1015.3
20260508150434 51 142 0.9 5.2 0.00 0.00 0.00 51 1015.2
20260508145932 50 147 0.9 5.2 0.00 0.00 0.00 52 1015.2
20260508145711 49 121 0.9 4.3 0.00 0.00 0.00 52 1015.2
20260508144918 49 150 1.7 5.2 0.00 0.00 0.00 53 1015.1
20260508144411 49 153 2.6 5.2 0.00 0.00 0.00 52 1015.2
20260508143909 48 138 2.6 7.8 0.00 0.00 0.00 53 1015.1
20260508143400 48 155 2.6 7.8 0.00 0.00 0.00 53 1015.1
20260508142854 47 140 3.5 7.8 0.00 0.00 0.00 55 1015.0
20260508142347 46 150 3.5 7.8 0.00 0.00 0.00 56 1015.0
20260508141842 45 134 3.5 7.0 0.00 0.00 0.00 58 1015.0
20260508141624 44 140 3.5 7.8 0.00 0.00 0.00 59 1015.0
20260508140829 44 159 2.6 7.8 0.00 0.00 0.00 59 1015.0
20260508140324 43 133 1.7 6.1 0.00 0.00 0.00 61 1015.0
20260508140058 43 182 0.9 6.1 0.00 0.00 0.00 61 1015.0
20260508135312 42 146 1.7 6.1 0.00 0.00 0.00 61 1015.0
20260508135034 42 126 1.7 6.1 0.00 0.00 0.00 61 1014.8
20260508134531 43 153 1.7 7.0 0.00 0.00 0.00 60 1014.8
20260508134309 43 153 1.7 7.0 0.00 0.00 0.00 60 1014.8
20260508133803 43 138 2.6 7.0 0.00 0.00 0.00 60 1014.8
20260508133542 43 138 2.6 6.1 0.00 0.00 0.00 60 1014.7
20260508133051 42 120 1.7 4.3 0.00 0.00 0.00 60 1014.6
20260508132308 42 138 1.7 4.3 0.00 0.00 0.00 62 1014.7
20260508132049 41 129 0.9 4.3 0.00 0.00 0.00 63 1014.7
20260508131307 41 131 0.0 2.6 0.00 0.00 0.00 62 1014.7
20260508131030 42 268 0.0 0.0 0.00 0.00 0.00 60 1014.7
20260508130804 42 268 0.0 0.0 0.00 0.00 0.00 60 1014.7
20260508130310 42 273 0.9 4.3 0.00 0.00 0.00 59 1014.8
20260508125827 45 55 0.9 4.3 0.00 0.00 0.00 56 1014.7
20260508125815 44 269 0.9 4.3 0.00 0.00 0.00 57 1014.6
20260508125024 45 129 1.7 4.3 0.00 0.00 0.00 57 1014.4
20260508124519 44 147 1.7 7.0 0.00 0.00 0.00 57 1014.4
20260508123807 44 144 1.7 7.0 0.00 0.00 0.00 58 1014.4
20260508123307 44 134 0.9 3.5 0.00 0.00 0.00 59 1014.5
20260508122814 43 138 0.0 2.6 0.00 0.00 0.00 60 1014.4
20260508122314 43 127 0.0 3.5 0.00 0.00 0.00 58 1014.4
20260508121815 43 127 0.9 3.5 0.00 0.00 0.00 58 1014.3
20260508121542 43 150 0.9 3.5 0.00 0.00 0.00 59 1014.3
20260508120823 44 144 0.9 5.2 0.00 0.00 0.00 59 1014.3
20260508120819 43 146 0.9 5.2 0.00 0.00 0.00 59 1014.3
20260508115756 43 154 0.0 2.6 0.00 0.00 0.00 59 1014.3
20260508115250 43 157 0.0 2.6 0.00 0.00 0.00 59 1014.3
20260508115024 43 199 0.0 0.9 0.00 0.00 0.00 59 1014.3
20260508114237 44 200 0.0 0.9 0.00 0.00 0.00 58 1014.3
20260508113731 44 215 0.0 0.0 0.00 0.00 0.00 57 1014.3
20260508113509 45 215 0.0 1.7 0.00 0.00 0.00 55 1014.3
20260508112715 45 215 0.0 1.7 0.00 0.00 0.00 54 1014.3
20260508112215 45 212 0.0 1.7 0.00 0.00 0.00 56 1014.2
20260508111715 45 215 0.0 1.7 0.00 0.00 0.00 56 1014.1
20260508111201 44 221 0.0 0.0 0.00 0.00 0.00 56 1014.1
20260508110928 44 221 0.0 0.9 0.00 0.00 0.00 55 1014.2
20260508110148 44 221 0.0 1.7 0.00 0.00 0.00 56 1014.1
20260508105641 44 221 0.0 1.7 0.00 0.00 0.00 57 1014.2
20260508105135 44 221 0.9 1.7 0.00 0.00 0.00 57 1014.1
20260508104629 44 221 0.9 1.7 0.00 0.00 0.00 57 1014.0
20260508104358 44 225 0.0 1.7 0.00 0.00 0.00 56 1014.1
20260508103619 44 220 0.0 1.7 0.00 0.00 0.00 56 1014.1
20260508103114 44 232 0.0 1.7 0.00 0.00 0.00 56 1014.1
20260508102612 44 235 0.0 0.9 0.00 0.00 0.00 56 1014.1
20260508102100 45 235 0.0 0.9 0.00 0.00 0.00 54 1014.1
20260508101559 46 234 0.0 2.6 0.00 0.00 0.00 54 1013.9
20260508101052 46 235 0.0 2.6 0.00 0.00 0.00 54 1013.9
20260508100542 46 204 0.0 1.7 0.00 0.00 0.00 54 1013.9
20260508100035 47 208 0.9 1.7 0.00 0.00 0.00 52 1013.9
20260508095529 47 117 0.9 1.7 0.00 0.00 0.00 52 1013.8
20260508095025 48 115 0.0 1.7 0.00 0.00 0.00 51 1013.9
20260508094516 49 144 0.0 1.7 0.00 0.00 0.00 50 1013.8
20260508094250 49 144 0.0 0.0 0.00 0.00 0.00 49 1013.8
20260508093509 50 144 0.0 0.0 0.00 0.00 0.00 49 1013.8
20260508092959 50 144 0.0 0.9 0.00 0.00 0.00 49 1013.8
20260508092454 51 144 0.0 0.9 0.00 0.00 0.00 48 1013.8
20260508091948 51 144 0.0 0.9 0.00 0.00 0.00 47 1013.8
20260508091441 52 140 0.0 0.9 0.00 0.00 0.00 46 1013.6
20260508091217 53 140 0.0 0.0 0.00 0.00 0.00 45 1013.8
20260508090432 53 141 0.0 0.0 0.00 0.00 0.00 45 1013.6
20260508085923 53 141 0.0 0.0 0.00 0.00 0.00 45 1013.6
20260508085421 53 141 0.0 0.0 0.00 0.00 0.00 45 1013.6
20260508084916 53 141 0.0 0.0 0.00 0.00 0.00 45 1013.6
20260508084410 53 141 0.0 0.0 0.00 0.00 0.00 45 1013.6
20260508083905 53 141 0.0 0.0 0.00 0.00 0.00 45 1013.6
20260508083355 53 141 0.0 0.9 0.00 0.00 0.00 45 1013.8
20260508082847 53 141 0.0 0.9 0.00 0.00 0.00 45 1013.8
20260508082341 53 140 0.0 0.9 0.00 0.00 0.00 45 1013.8
20260508081838 54 141 0.0 0.9 0.00 0.00 0.00 45 1013.9
20260508081332 54 140 0.0 1.7 0.00 0.00 0.00 44 1013.9
20260508080825 54 141 0.9 2.6 0.00 0.00 0.00 44 1013.8
20260508080317 54 141 0.9 2.6 0.00 0.00 0.00 44 1013.9
20260508075818 54 147 0.9 2.6 0.00 0.00 0.00 45 1013.9
20260508075307 54 150 0.9 2.6 0.00 0.00 0.00 45 1013.8
20260508074749 53 168 0.0 1.7 0.00 0.00 0.00 45 1013.8
20260508074244 54 169 0.9 3.5 0.00 0.00 0.00 45 1013.8
20260508073740 54 169 0.9 3.5 0.00 0.00 0.00 44 1013.8
20260508073234 54 147 0.0 2.6 0.00 0.00 0.00 44 1013.6
20260508072735 54 147 0.9 2.6 0.00 0.00 0.00 44 1013.8
20260508072246 55 146 0.9 2.6 0.00 0.00 0.00 43 1013.6
20260508071747 56 146 0.9 2.6 0.00 0.00 0.00 42 1013.6
20260508071245 56 148 0.0 2.6 0.00 0.00 0.00 41 1013.8
20260508070744 57 259 0.0 0.0 0.00 0.00 0.00 40 1013.6
20260508070240 57 257 0.0 0.0 0.00 0.00 0.00 39 1013.6
20260508065738 58 257 0.0 2.6 0.00 0.00 0.00 38 1013.6
20260508065234 58 257 0.0 2.6 0.00 0.00 0.00 38 1013.6
20260508065011 58 257 0.0 2.6 0.00 0.00 0.00 37 1013.5
20260508064232 59 259 0.9 2.6 0.00 0.00 0.00 37 1013.5
20260508063732 60 262 0.9 3.5 0.00 0.00 0.00 36 1013.6
20260508063229 60 279 2.6 7.8 0.00 0.00 0.00 36 1013.5
20260508062730 61 283 3.5 8.7 0.00 0.00 0.00 35 1013.5
20260508062232 61 288 4.3 13.0 0.00 0.00 0.00 34 1013.4
20260508061731 61 215 4.3 13.0 0.00 0.00 0.00 35 1013.4